Year,Month,Day,Hour,Minute,Value (Times are PST for temperature in C)
2009,08,12,00,00,12.60
2009,08,12,00,01,12.60
2009,08,12,00,02,12.50
2009,08,12,00,03,12.50
2009,08,12,00,04,12.50
2009,08,12,00,05,12.40
2009,08,12,00,06,12.40
2009,08,12,00,07,12.40
2009,08,12,00,08,12.30
2009,08,12,00,09,12.30
2009,08,12,00,10,12.30
2009,08,12,00,11,12.30
2009,08,12,00,12,12.30
2009,08,12,00,13,12.30
2009,08,12,00,14,12.30
2009,08,12,00,15,12.30
2009,08,12,00,16,12.20
2009,08,12,00,17,12.20
2009,08,12,00,18,12.20
2009,08,12,00,19,12.20
2009,08,12,00,20,12.20
2009,08,12,00,21,12.10
2009,08,12,00,22,12.10
2009,08,12,00,23,12.10
2009,08,12,00,24,12.10
2009,08,12,00,25,12.10
2009,08,12,00,26,12.10
2009,08,12,00,27,12.10
2009,08,12,00,28,12.10
2009,08,12,00,29,12.10
2009,08,12,00,30,12.00
2009,08,12,00,31,12.00
2009,08,12,00,32,12.00
2009,08,12,00,33,12.00
2009,08,12,00,34,12.00
2009,08,12,00,35,12.00
2009,08,12,00,36,12.00
2009,08,12,00,37,12.00
2009,08,12,00,38,12.00
2009,08,12,00,39,12.00
2009,08,12,00,40,12.00
2009,08,12,00,41,12.00
2009,08,12,00,42,12.00
2009,08,12,00,43,12.00
2009,08,12,00,44,12.00
2009,08,12,00,45,12.00
2009,08,12,00,46,12.00
2009,08,12,00,47,12.00
2009,08,12,00,48,12.00
2009,08,12,00,49,12.00
2009,08,12,00,50,12.00
2009,08,12,00,51,12.00
2009,08,12,00,52,12.00
2009,08,12,00,53,12.00
2009,08,12,00,54,12.00
2009,08,12,00,55,11.90
2009,08,12,00,56,11.90
2009,08,12,00,57,11.90
2009,08,12,00,58,11.90
2009,08,12,00,59,11.90
2009,08,12,01,00,11.90
2009,08,12,01,01,11.90
2009,08,12,01,02,11.90
2009,08,12,01,03,11.90
2009,08,12,01,04,11.90
2009,08,12,01,05,11.90
2009,08,12,01,06,11.90
2009,08,12,01,07,11.90
2009,08,12,01,08,11.90
2009,08,12,01,09,11.90
2009,08,12,01,10,11.80
2009,08,12,01,11,11.80
2009,08,12,01,12,11.80
2009,08,12,01,13,11.80
2009,08,12,01,14,11.80
2009,08,12,01,15,11.80
2009,08,12,01,16,11.80
2009,08,12,01,17,11.80
2009,08,12,01,18,11.80
2009,08,12,01,19,11.80
2009,08,12,01,20,11.80
2009,08,12,01,21,11.80
2009,08,12,01,22,11.80
2009,08,12,01,23,11.80
2009,08,12,01,24,11.80
2009,08,12,01,25,11.80
2009,08,12,01,26,11.80
2009,08,12,01,27,11.70
2009,08,12,01,28,11.70
2009,08,12,01,29,11.70
2009,08,12,01,30,11.60
2009,08,12,01,31,11.60
2009,08,12,01,32,11.60
2009,08,12,01,33,11.60
2009,08,12,01,34,11.60
2009,08,12,01,35,11.60
2009,08,12,01,36,11.60
2009,08,12,01,37,11.60
2009,08,12,01,38,11.60
2009,08,12,01,39,11.60
2009,08,12,01,40,11.60
2009,08,12,01,41,11.60
2009,08,12,01,42,11.60
2009,08,12,01,43,11.60
2009,08,12,01,44,11.60
2009,08,12,01,45,11.60
2009,08,12,01,46,11.60
2009,08,12,01,47,11.60
2009,08,12,01,48,11.60
2009,08,12,01,49,11.60
2009,08,12,01,50,11.60
2009,08,12,01,51,11.60
2009,08,12,01,52,11.60
2009,08,12,01,53,11.60
2009,08,12,01,54,11.60
2009,08,12,01,55,11.60
2009,08,12,01,56,11.60
2009,08,12,01,57,11.60
2009,08,12,01,58,11.60
2009,08,12,01,59,11.60
2009,08,12,02,00,11.70
2009,08,12,02,01,11.70
2009,08,12,02,02,11.70
2009,08,12,02,03,11.80
2009,08,12,02,04,11.80
2009,08,12,02,05,11.80
2009,08,12,02,06,11.80
2009,08,12,02,07,11.80
2009,08,12,02,08,11.80
2009,08,12,02,09,11.90
2009,08,12,02,10,11.90
2009,08,12,02,11,12.00
2009,08,12,02,12,12.00
2009,08,12,02,13,12.10
2009,08,12,02,14,12.20
2009,08,12,02,15,12.30
2009,08,12,02,16,12.40
2009,08,12,02,17,12.50
2009,08,12,02,18,12.60
2009,08,12,02,19,12.70
2009,08,12,02,20,12.70
2009,08,12,02,21,12.80
2009,08,12,02,22,12.80
2009,08,12,02,23,12.90
2009,08,12,02,24,13.00
2009,08,12,02,25,13.00
2009,08,12,02,26,13.10
2009,08,12,02,27,13.10
2009,08,12,02,28,13.10
2009,08,12,02,29,13.20
2009,08,12,02,30,13.20
2009,08,12,02,31,13.20
2009,08,12,02,32,13.30
2009,08,12,02,33,13.30
2009,08,12,02,34,13.30
2009,08,12,02,35,13.30
2009,08,12,02,36,13.30
2009,08,12,02,37,13.20
2009,08,12,02,38,13.20
2009,08,12,02,39,13.20
2009,08,12,02,40,13.10
2009,08,12,02,41,13.10
2009,08,12,02,42,13.00
2009,08,12,02,43,12.90
2009,08,12,02,44,12.80
2009,08,12,02,45,12.70
2009,08,12,02,46,12.60
2009,08,12,02,47,12.60
2009,08,12,02,48,12.60
2009,08,12,02,49,12.50
2009,08,12,02,50,12.50
2009,08,12,02,51,12.50
2009,08,12,02,52,12.40
2009,08,12,02,53,12.40
2009,08,12,02,54,12.30
2009,08,12,02,55,12.30
2009,08,12,02,56,12.30
2009,08,12,02,57,12.30
2009,08,12,02,58,12.30
2009,08,12,02,59,12.30
2009,08,12,03,00,12.20
2009,08,12,03,01,12.20
2009,08,12,03,02,12.20
2009,08,12,03,03,12.20
2009,08,12,03,04,12.20
2009,08,12,03,05,12.20
2009,08,12,03,06,12.20
2009,08,12,03,07,12.10
2009,08,12,03,08,12.10
2009,08,12,03,09,12.10
2009,08,12,03,10,12.10
2009,08,12,03,11,12.00
2009,08,12,03,12,12.00
2009,08,12,03,13,12.00
2009,08,12,03,14,12.00
2009,08,12,03,15,11.90
2009,08,12,03,16,11.90
2009,08,12,03,17,11.90
2009,08,12,03,18,11.90
2009,08,12,03,19,11.80
2009,08,12,03,20,11.80
2009,08,12,03,21,11.80
2009,08,12,03,22,11.80
2009,08,12,03,23,11.80
2009,08,12,03,24,11.80
2009,08,12,03,25,11.90
2009,08,12,03,26,11.90
2009,08,12,03,27,12.00
2009,08,12,03,28,12.00
2009,08,12,03,29,12.00
2009,08,12,03,30,12.00
2009,08,12,03,31,12.00
2009,08,12,03,32,12.00
2009,08,12,03,33,12.00
2009,08,12,03,34,12.00
2009,08,12,03,35,12.00
2009,08,12,03,36,11.90
2009,08,12,03,37,11.90
2009,08,12,03,38,11.90
2009,08,12,03,39,11.90
2009,08,12,03,40,11.90
2009,08,12,03,41,11.90
2009,08,12,03,42,11.90
2009,08,12,03,43,11.80
2009,08,12,03,44,11.80
2009,08,12,03,45,11.80
2009,08,12,03,46,11.80
2009,08,12,03,47,11.80
2009,08,12,03,48,11.70
2009,08,12,03,49,11.70
2009,08,12,03,50,11.60
2009,08,12,03,51,11.60
2009,08,12,03,52,11.60
2009,08,12,03,53,11.60
2009,08,12,03,54,11.50
2009,08,12,03,55,11.40
2009,08,12,03,56,11.40
2009,08,12,03,57,11.40
2009,08,12,03,58,11.40
2009,08,12,03,59,11.40
2009,08,12,04,00,11.40
2009,08,12,04,01,11.40
2009,08,12,04,02,11.40
2009,08,12,04,03,11.40
2009,08,12,04,04,11.40
2009,08,12,04,05,11.40
2009,08,12,04,06,11.40
2009,08,12,04,07,11.40
2009,08,12,04,08,11.40
2009,08,12,04,09,11.40
2009,08,12,04,10,11.40
2009,08,12,04,11,11.40
2009,08,12,04,12,11.40
2009,08,12,04,13,11.40
2009,08,12,04,14,11.40
2009,08,12,04,15,11.40
2009,08,12,04,16,11.40
2009,08,12,04,17,11.40
2009,08,12,04,18,11.40
2009,08,12,04,19,11.40
2009,08,12,04,20,11.40
2009,08,12,04,21,11.40
2009,08,12,04,22,11.40
2009,08,12,04,23,11.40
2009,08,12,04,24,11.40
2009,08,12,04,25,11.40
2009,08,12,04,26,11.40
2009,08,12,04,27,11.40
2009,08,12,04,28,11.40
2009,08,12,04,29,11.40
2009,08,12,04,30,11.40
2009,08,12,04,31,11.40
2009,08,12,04,32,11.40
2009,08,12,04,33,11.50
2009,08,12,04,34,11.60
2009,08,12,04,35,11.60
2009,08,12,04,36,11.70
2009,08,12,04,37,11.80
2009,08,12,04,38,11.80
2009,08,12,04,39,11.80
2009,08,12,04,40,11.90
2009,08,12,04,41,11.90
2009,08,12,04,42,12.00
2009,08,12,04,43,12.00
2009,08,12,04,44,12.00
2009,08,12,04,45,12.00
2009,08,12,04,46,12.00
2009,08,12,04,47,12.00
2009,08,12,04,48,11.90
2009,08,12,04,49,11.90
2009,08,12,04,50,11.80
2009,08,12,04,51,11.80
2009,08,12,04,52,11.80
2009,08,12,04,53,11.80
2009,08,12,04,54,11.70
2009,08,12,04,55,11.70
2009,08,12,04,56,11.70
2009,08,12,04,57,11.70
2009,08,12,04,58,11.70
2009,08,12,04,59,11.80
2009,08,12,05,00,11.80
2009,08,12,05,01,11.80
2009,08,12,05,02,11.90
2009,08,12,05,03,11.90
2009,08,12,05,04,11.90
2009,08,12,05,05,12.00
2009,08,12,05,06,12.00
2009,08,12,05,07,12.00
2009,08,12,05,08,12.00
2009,08,12,05,09,12.00
2009,08,12,05,10,12.00
2009,08,12,05,11,12.00
2009,08,12,05,12,12.00
2009,08,12,05,13,12.00
2009,08,12,05,14,11.90
2009,08,12,05,15,11.90
2009,08,12,05,16,11.90
2009,08,12,05,17,11.90
2009,08,12,05,18,11.90
2009,08,12,05,19,11.90
2009,08,12,05,20,11.80
2009,08,12,05,21,11.80
2009,08,12,05,22,11.80
2009,08,12,05,23,11.80
2009,08,12,05,24,11.80
2009,08,12,05,25,11.80
2009,08,12,05,26,11.70
2009,08,12,05,27,11.70
2009,08,12,05,28,11.70
2009,08,12,05,29,11.80
2009,08,12,05,30,11.80
2009,08,12,05,31,11.80
2009,08,12,05,32,11.80
2009,08,12,05,33,11.80
2009,08,12,05,34,11.70
2009,08,12,05,35,11.70
2009,08,12,05,36,11.60
2009,08,12,05,37,11.60
2009,08,12,05,38,11.60
2009,08,12,05,39,11.60
2009,08,12,05,40,11.50
2009,08,12,05,41,11.40
2009,08,12,05,42,11.40
2009,08,12,05,43,11.40
2009,08,12,05,44,11.40
2009,08,12,05,45,11.40
2009,08,12,05,46,11.40
2009,08,12,05,47,11.40
2009,08,12,05,48,11.40
2009,08,12,05,49,11.40
2009,08,12,05,50,11.40
2009,08,12,05,51,11.40
2009,08,12,05,52,11.40
2009,08,12,05,53,11.40
2009,08,12,05,54,11.40
2009,08,12,05,55,11.30
2009,08,12,05,56,11.30
2009,08,12,05,57,11.30
2009,08,12,05,58,11.30
2009,08,12,05,59,11.30
2009,08,12,06,00,11.30
2009,08,12,06,01,11.30
2009,08,12,06,02,11.30
2009,08,12,06,03,11.20
2009,08,12,06,04,11.20
2009,08,12,06,05,11.20
2009,08,12,06,06,11.20
2009,08,12,06,07,11.20
2009,08,12,06,08,11.20
2009,08,12,06,09,11.20
2009,08,12,06,10,11.10
2009,08,12,06,11,11.10
2009,08,12,06,12,11.20
2009,08,12,06,13,11.20
2009,08,12,06,14,11.20
2009,08,12,06,15,11.20
2009,08,12,06,16,11.20
2009,08,12,06,17,11.20
2009,08,12,06,18,11.30
2009,08,12,06,19,11.30
2009,08,12,06,20,11.20
2009,08,12,06,21,11.20
2009,08,12,06,22,11.20
2009,08,12,06,23,11.20
2009,08,12,06,24,11.20
2009,08,12,06,25,11.20
2009,08,12,06,26,11.20
2009,08,12,06,27,11.20
2009,08,12,06,28,11.20
2009,08,12,06,29,11.30
2009,08,12,06,30,11.30
2009,08,12,06,31,11.30
2009,08,12,06,32,11.40
2009,08,12,06,33,11.40
2009,08,12,06,34,11.40
2009,08,12,06,35,11.40
2009,08,12,06,36,11.40
2009,08,12,06,37,11.40
2009,08,12,06,38,11.40
2009,08,12,06,39,11.40
2009,08,12,06,40,11.40
2009,08,12,06,41,11.40
2009,08,12,06,42,11.40
2009,08,12,06,43,11.40
2009,08,12,06,44,11.60
2009,08,12,06,45,11.60
2009,08,12,06,46,11.60
2009,08,12,06,47,11.60
2009,08,12,06,48,11.60
2009,08,12,06,49,11.60
2009,08,12,06,50,11.60
2009,08,12,06,51,11.60
2009,08,12,06,52,11.60
2009,08,12,06,53,11.60
2009,08,12,06,54,11.60
2009,08,12,06,55,11.60
2009,08,12,06,56,11.60
2009,08,12,06,57,11.70
2009,08,12,06,58,11.70
2009,08,12,06,59,11.80
2009,08,12,07,00,11.80
2009,08,12,07,01,11.80
2009,08,12,07,02,11.80
2009,08,12,07,03,11.90
2009,08,12,07,04,12.00
2009,08,12,07,05,12.00
2009,08,12,07,06,12.10
2009,08,12,07,07,12.10
2009,08,12,07,08,12.10
2009,08,12,07,09,12.10
2009,08,12,07,10,12.10
2009,08,12,07,11,12.10
2009,08,12,07,12,12.10
2009,08,12,07,13,12.20
2009,08,12,07,14,12.20
2009,08,12,07,15,12.20
2009,08,12,07,16,12.20
2009,08,12,07,17,12.30
2009,08,12,07,18,12.30
2009,08,12,07,19,12.30
2009,08,12,07,20,12.30
2009,08,12,07,21,12.30
2009,08,12,07,22,12.30
2009,08,12,07,23,12.30
2009,08,12,07,24,12.40
2009,08,12,07,25,12.40
2009,08,12,07,26,12.50
2009,08,12,07,27,12.50
2009,08,12,07,28,12.60
2009,08,12,07,29,12.60
2009,08,12,07,30,12.70
2009,08,12,07,31,12.80
2009,08,12,07,32,12.80
2009,08,12,07,33,12.80
2009,08,12,07,34,12.90
2009,08,12,07,35,13.00
2009,08,12,07,36,13.00
2009,08,12,07,37,13.00
2009,08,12,07,38,13.10
2009,08,12,07,39,13.10
2009,08,12,07,40,13.20
2009,08,12,07,41,13.20
2009,08,12,07,42,13.30
2009,08,12,07,43,13.30
2009,08,12,07,44,13.30
2009,08,12,07,45,13.30
2009,08,12,07,46,13.40
2009,08,12,07,47,13.40
2009,08,12,07,48,13.50
2009,08,12,07,49,13.50
2009,08,12,07,50,13.60
2009,08,12,07,51,13.60
2009,08,12,07,52,13.70
2009,08,12,07,53,13.70
2009,08,12,07,54,13.70
2009,08,12,07,55,13.70
2009,08,12,07,56,13.60
2009,08,12,07,57,13.60
2009,08,12,07,58,13.60
2009,08,12,07,59,13.60
2009,08,12,08,00,13.60
2009,08,12,08,01,13.50
2009,08,12,08,02,13.50
2009,08,12,08,03,13.50
2009,08,12,08,04,13.40
2009,08,12,08,05,13.40
2009,08,12,08,06,13.30
2009,08,12,08,07,13.30
2009,08,12,08,08,13.30
2009,08,12,08,09,13.30
2009,08,12,08,10,13.30
2009,08,12,08,11,13.30
2009,08,12,08,12,13.30
2009,08,12,08,13,13.30
2009,08,12,08,14,13.30
2009,08,12,08,15,13.40
2009,08,12,08,16,13.50
2009,08,12,08,17,13.60
2009,08,12,08,18,13.70
2009,08,12,08,19,13.70
2009,08,12,08,20,13.80
2009,08,12,08,21,13.90
2009,08,12,08,22,14.10
2009,08,12,08,23,14.10
2009,08,12,08,24,14.20
2009,08,12,08,25,14.20
2009,08,12,08,26,14.30
2009,08,12,08,27,14.40
2009,08,12,08,28,14.40
2009,08,12,08,29,14.40
2009,08,12,08,30,14.40
2009,08,12,08,31,14.40
2009,08,12,08,32,14.40
2009,08,12,08,33,14.40
2009,08,12,08,34,14.30
2009,08,12,08,35,14.30
2009,08,12,08,36,14.30
2009,08,12,08,37,14.40
2009,08,12,08,38,14.40
2009,08,12,08,39,14.40
2009,08,12,08,40,14.50
2009,08,12,08,41,14.60
2009,08,12,08,42,14.60
2009,08,12,08,43,14.70
2009,08,12,08,44,14.80
2009,08,12,08,45,14.90
2009,08,12,08,46,15.00
2009,08,12,08,47,15.10
2009,08,12,08,48,15.10
2009,08,12,08,49,15.20
2009,08,12,08,50,15.30
2009,08,12,08,51,15.40
2009,08,12,08,52,15.50
2009,08,12,08,53,15.60
2009,08,12,08,54,15.60
2009,08,12,08,55,15.70
2009,08,12,08,56,15.80
2009,08,12,08,57,15.80
2009,08,12,08,58,15.80
2009,08,12,08,59,15.80
2009,08,12,09,00,15.80
2009,08,12,09,01,15.80
2009,08,12,09,02,15.90
2009,08,12,09,03,15.90
2009,08,12,09,04,16.00
2009,08,12,09,05,16.10
2009,08,12,09,06,16.10
2009,08,12,09,07,16.10
2009,08,12,09,08,16.10
2009,08,12,09,09,16.10
2009,08,12,09,10,16.20
2009,08,12,09,11,16.20
2009,08,12,09,12,16.20
2009,08,12,09,13,16.30
2009,08,12,09,14,16.30
2009,08,12,09,15,16.30
2009,08,12,09,16,16.30
2009,08,12,09,17,16.20
2009,08,12,09,18,16.30
2009,08,12,09,19,16.30
2009,08,12,09,20,16.30
2009,08,12,09,21,16.30
2009,08,12,09,22,16.30
2009,08,12,09,23,16.40
2009,08,12,09,24,16.40
2009,08,12,09,25,16.40
2009,08,12,09,26,16.40
2009,08,12,09,27,16.40
2009,08,12,09,28,16.40
2009,08,12,09,29,16.50
2009,08,12,09,30,16.60
2009,08,12,09,31,16.60
2009,08,12,09,32,16.60
2009,08,12,09,33,16.50
2009,08,12,09,34,16.40
2009,08,12,09,35,16.40
2009,08,12,09,36,16.40
2009,08,12,09,37,16.40
2009,08,12,09,38,16.40
2009,08,12,09,39,16.40
2009,08,12,09,40,16.40
2009,08,12,09,41,16.30
2009,08,12,09,42,16.30
2009,08,12,09,43,16.30
2009,08,12,09,44,16.40
2009,08,12,09,45,16.30
2009,08,12,09,46,16.30
2009,08,12,09,47,16.40
2009,08,12,09,48,16.40
2009,08,12,09,49,16.50
2009,08,12,09,50,16.60
2009,08,12,09,51,16.70
2009,08,12,09,52,16.80
2009,08,12,09,53,17.00
2009,08,12,09,54,17.00
2009,08,12,09,55,16.90
2009,08,12,09,56,16.80
2009,08,12,09,57,16.70
2009,08,12,09,58,16.70
2009,08,12,09,59,16.70
2009,08,12,10,00,16.70
2009,08,12,10,01,16.70
2009,08,12,10,02,16.60
2009,08,12,10,03,16.30
2009,08,12,10,04,16.00
2009,08,12,10,05,15.60
2009,08,12,10,06,15.30
2009,08,12,10,07,15.20
2009,08,12,10,08,15.20
2009,08,12,10,09,15.20
2009,08,12,10,10,15.20
2009,08,12,10,11,15.30
2009,08,12,10,12,15.30
2009,08,12,10,13,15.30
2009,08,12,10,14,15.40
2009,08,12,10,15,15.50
2009,08,12,10,16,15.50
2009,08,12,10,17,15.60
2009,08,12,10,18,15.70
2009,08,12,10,19,15.80
2009,08,12,10,20,15.80
2009,08,12,10,21,15.80
2009,08,12,10,22,15.80
2009,08,12,10,23,15.80
2009,08,12,10,24,15.80
2009,08,12,10,25,15.80
2009,08,12,10,26,15.70
2009,08,12,10,27,15.60
2009,08,12,10,28,15.50
2009,08,12,10,29,15.30
2009,08,12,10,30,15.10
2009,08,12,10,31,15.00
2009,08,12,10,32,14.90
2009,08,12,10,33,15.00
2009,08,12,10,34,15.00
2009,08,12,10,35,15.10
2009,08,12,10,36,15.10
2009,08,12,10,37,15.10
2009,08,12,10,38,15.10
2009,08,12,10,39,15.20
2009,08,12,10,40,15.40
2009,08,12,10,41,15.50
2009,08,12,10,42,15.70
2009,08,12,10,43,15.80
2009,08,12,10,44,15.80
2009,08,12,10,45,15.90
2009,08,12,10,46,16.10
2009,08,12,10,47,16.10
2009,08,12,10,48,16.20
2009,08,12,10,49,16.30
2009,08,12,10,50,16.40
2009,08,12,10,51,16.40
2009,08,12,10,52,16.50
2009,08,12,10,53,16.60
2009,08,12,10,54,16.60
2009,08,12,10,55,16.70
2009,08,12,10,56,16.70
2009,08,12,10,57,16.70
2009,08,12,10,58,16.70
2009,08,12,10,59,16.70
2009,08,12,11,00,16.60
2009,08,12,11,01,16.60
2009,08,12,11,02,16.60
2009,08,12,11,03,16.50
2009,08,12,11,04,16.40
2009,08,12,11,05,16.50
2009,08,12,11,06,16.60
2009,08,12,11,07,16.70
2009,08,12,11,08,16.70
2009,08,12,11,09,16.70
2009,08,12,11,10,16.70
2009,08,12,11,11,16.70
2009,08,12,11,12,16.70
2009,08,12,11,13,16.70
2009,08,12,11,14,16.80
2009,08,12,11,15,16.90
2009,08,12,11,16,16.90
2009,08,12,11,17,17.00
2009,08,12,11,18,17.00
2009,08,12,11,19,17.00
2009,08,12,11,20,17.00
2009,08,12,11,21,17.00
2009,08,12,11,22,17.00
2009,08,12,11,23,16.90
2009,08,12,11,24,16.90
2009,08,12,11,25,16.90
2009,08,12,11,26,16.90
2009,08,12,11,27,16.80
2009,08,12,11,28,16.70
2009,08,12,11,29,16.60
2009,08,12,11,30,16.60
2009,08,12,11,31,16.60
2009,08,12,11,32,16.60
2009,08,12,11,33,16.40
2009,08,12,11,34,16.40
2009,08,12,11,35,16.50
2009,08,12,11,36,16.60
2009,08,12,11,37,16.60
2009,08,12,11,38,16.70
2009,08,12,11,39,16.70
2009,08,12,11,40,16.70
2009,08,12,11,41,16.80
2009,08,12,11,42,16.80
2009,08,12,11,43,16.90
2009,08,12,11,44,17.00
2009,08,12,11,45,16.90
2009,08,12,11,46,16.90
2009,08,12,11,47,16.80
2009,08,12,11,48,16.90
2009,08,12,11,49,16.90
2009,08,12,11,50,16.90
2009,08,12,11,51,16.90
2009,08,12,11,52,16.90
2009,08,12,11,53,16.90
2009,08,12,11,54,16.90
2009,08,12,11,55,17.00
2009,08,12,11,56,17.10
2009,08,12,11,57,17.20
2009,08,12,11,58,17.30
2009,08,12,11,59,17.30
2009,08,12,12,00,17.30
2009,08,12,12,01,17.10
2009,08,12,12,02,16.90
2009,08,12,12,03,16.70
2009,08,12,12,04,16.70
2009,08,12,12,05,16.70
2009,08,12,12,06,16.70
2009,08,12,12,07,16.70
2009,08,12,12,08,16.80
2009,08,12,12,09,16.80
2009,08,12,12,10,16.80
2009,08,12,12,11,16.80
2009,08,12,12,12,16.60
2009,08,12,12,13,16.40
2009,08,12,12,14,16.20
2009,08,12,12,15,16.10
2009,08,12,12,16,16.00
2009,08,12,12,17,15.90
2009,08,12,12,18,15.90
2009,08,12,12,19,15.90
2009,08,12,12,20,15.80
2009,08,12,12,21,15.80
2009,08,12,12,22,15.80
2009,08,12,12,23,15.80
2009,08,12,12,24,15.80
2009,08,12,12,25,15.80
2009,08,12,12,26,15.80
2009,08,12,12,27,15.90
2009,08,12,12,28,15.90
2009,08,12,12,29,15.90
2009,08,12,12,30,15.90
2009,08,12,12,31,15.80
2009,08,12,12,32,15.80
2009,08,12,12,33,15.80
2009,08,12,12,34,15.80
2009,08,12,12,35,15.80
2009,08,12,12,36,15.80
2009,08,12,12,37,15.80
2009,08,12,12,38,15.80
2009,08,12,12,39,15.70
2009,08,12,12,40,15.60
2009,08,12,12,41,15.40
2009,08,12,12,42,15.30
2009,08,12,12,43,15.30
2009,08,12,12,44,15.30
2009,08,12,12,45,15.30
2009,08,12,12,46,15.40
2009,08,12,12,47,15.60
2009,08,12,12,48,15.70
2009,08,12,12,49,15.70
2009,08,12,12,50,15.70
2009,08,12,12,51,15.80
2009,08,12,12,52,15.80
2009,08,12,12,53,15.90
2009,08,12,12,54,15.90
2009,08,12,12,55,15.80
2009,08,12,12,56,15.80
2009,08,12,12,57,15.80
2009,08,12,12,58,15.80
2009,08,12,12,59,15.80
2009,08,12,13,00,15.90
2009,08,12,13,01,16.10
2009,08,12,13,02,16.30
2009,08,12,13,03,16.40
2009,08,12,13,04,16.50
2009,08,12,13,05,16.60
2009,08,12,13,06,16.70
2009,08,12,13,07,16.60
2009,08,12,13,08,16.60
2009,08,12,13,09,16.50
2009,08,12,13,10,16.30
2009,08,12,13,11,16.20
2009,08,12,13,12,16.10
2009,08,12,13,13,15.90
2009,08,12,13,14,15.80
2009,08,12,13,15,15.80
2009,08,12,13,16,15.60
2009,08,12,13,17,15.40
2009,08,12,13,18,15.20
2009,08,12,13,19,15.00
2009,08,12,13,20,14.90
2009,08,12,13,21,14.90
2009,08,12,13,22,14.90
2009,08,12,13,23,14.80
2009,08,12,13,24,14.80
2009,08,12,13,25,14.80
2009,08,12,13,26,14.80
2009,08,12,13,27,14.70
2009,08,12,13,28,14.60
2009,08,12,13,29,14.50
2009,08,12,13,30,14.40
2009,08,12,13,31,14.40
2009,08,12,13,32,14.40
2009,08,12,13,33,14.50
2009,08,12,13,34,14.50
2009,08,12,13,35,14.50
2009,08,12,13,36,14.60
2009,08,12,13,37,14.70
2009,08,12,13,38,14.90
2009,08,12,13,39,15.00
2009,08,12,13,40,15.10
2009,08,12,13,41,15.20
2009,08,12,13,42,15.20
2009,08,12,13,43,15.30
2009,08,12,13,44,15.20
2009,08,12,13,45,15.20
2009,08,12,13,46,15.30
2009,08,12,13,47,15.30
2009,08,12,13,48,15.30
2009,08,12,13,49,15.20
2009,08,12,13,50,15.10
2009,08,12,13,51,15.10
2009,08,12,13,52,15.00
2009,08,12,13,53,14.90
2009,08,12,13,54,14.90
2009,08,12,13,55,14.90
2009,08,12,13,56,14.90
2009,08,12,13,57,14.90
2009,08,12,13,58,14.80
2009,08,12,13,59,14.80
2009,08,12,14,00,14.80
2009,08,12,14,01,14.80
2009,08,12,14,02,14.80
2009,08,12,14,03,14.80
2009,08,12,14,04,14.80
2009,08,12,14,05,14.80
2009,08,12,14,06,14.70
2009,08,12,14,07,14.80
2009,08,12,14,08,14.80
2009,08,12,14,09,14.80
2009,08,12,14,10,14.60
2009,08,12,14,11,14.60
2009,08,12,14,12,14.60
2009,08,12,14,13,14.50
2009,08,12,14,14,14.50
2009,08,12,14,15,14.40
2009,08,12,14,16,14.30
2009,08,12,14,17,14.20
2009,08,12,14,18,14.10
2009,08,12,14,19,14.10
2009,08,12,14,20,14.10
2009,08,12,14,21,14.00
2009,08,12,14,22,14.00
2009,08,12,14,23,14.00
2009,08,12,14,24,14.00
2009,08,12,14,25,14.00
2009,08,12,14,26,14.00
2009,08,12,14,27,14.00
2009,08,12,14,28,14.00
2009,08,12,14,29,14.00
2009,08,12,14,30,13.80
2009,08,12,14,31,13.80
2009,08,12,14,32,13.70
2009,08,12,14,33,13.80
2009,08,12,14,34,13.80
2009,08,12,14,35,13.80
2009,08,12,14,36,13.90
2009,08,12,14,37,13.90
2009,08,12,14,38,13.90
2009,08,12,14,39,13.90
2009,08,12,14,40,14.00
2009,08,12,14,41,14.20
2009,08,12,14,42,14.20
2009,08,12,14,43,14.20
2009,08,12,14,44,14.40
2009,08,12,14,45,14.50
2009,08,12,14,46,14.70
2009,08,12,14,47,14.70
2009,08,12,14,48,14.60
2009,08,12,14,49,14.60
2009,08,12,14,50,14.60
2009,08,12,14,51,14.60
2009,08,12,14,52,14.50
2009,08,12,14,53,14.60
2009,08,12,14,54,14.60
2009,08,12,14,55,14.70
2009,08,12,14,56,14.80
2009,08,12,14,57,14.90
2009,08,12,14,58,14.90
2009,08,12,14,59,14.90
2009,08,12,15,00,14.90
2009,08,12,15,01,14.90
2009,08,12,15,02,15.00
2009,08,12,15,03,15.00
2009,08,12,15,04,15.10
2009,08,12,15,05,15.20
2009,08,12,15,06,15.30
2009,08,12,15,07,15.50
2009,08,12,15,08,15.60
2009,08,12,15,09,15.80
2009,08,12,15,10,15.70
2009,08,12,15,11,15.70
2009,08,12,15,12,15.70
2009,08,12,15,13,15.70
2009,08,12,15,14,15.80
2009,08,12,15,15,15.80
2009,08,12,15,16,15.90
2009,08,12,15,17,15.90
2009,08,12,15,18,15.80
2009,08,12,15,19,15.70
2009,08,12,15,20,15.70
2009,08,12,15,21,15.80
2009,08,12,15,22,15.90
2009,08,12,15,23,16.10
2009,08,12,15,24,16.30
2009,08,12,15,25,16.40
2009,08,12,15,26,16.60
2009,08,12,15,27,16.70
2009,08,12,15,28,16.70
2009,08,12,15,29,16.70
2009,08,12,15,30,16.70
2009,08,12,15,31,16.80
2009,08,12,15,32,16.70
2009,08,12,15,33,16.50
2009,08,12,15,34,16.40
2009,08,12,15,35,16.40
2009,08,12,15,36,16.30
2009,08,12,15,37,16.40
2009,08,12,15,38,16.40
2009,08,12,15,39,16.50
2009,08,12,15,40,16.60
2009,08,12,15,41,16.70
2009,08,12,15,42,16.80
2009,08,12,15,43,16.90
2009,08,12,15,44,17.00
2009,08,12,15,45,17.00
2009,08,12,15,46,17.00
2009,08,12,15,47,17.00
2009,08,12,15,48,17.00
2009,08,12,15,49,16.90
2009,08,12,15,50,16.90
2009,08,12,15,51,16.90
2009,08,12,15,52,17.00
2009,08,12,15,53,17.00
2009,08,12,15,54,16.90
2009,08,12,15,55,16.80
2009,08,12,15,56,16.60
2009,08,12,15,57,16.60
2009,08,12,15,58,16.60
2009,08,12,15,59,16.70
2009,08,12,16,00,16.70
2009,08,12,16,01,16.80
2009,08,12,16,02,16.80
2009,08,12,16,03,16.90
2009,08,12,16,04,16.80
2009,08,12,16,05,16.80
2009,08,12,16,06,16.90
2009,08,12,16,07,17.00
2009,08,12,16,08,17.10
2009,08,12,16,09,17.30
2009,08,12,16,10,17.40
2009,08,12,16,11,17.50
2009,08,12,16,12,17.70
2009,08,12,16,13,17.90
2009,08,12,16,14,18.00
2009,08,12,16,15,18.20
2009,08,12,16,16,18.20
2009,08,12,16,17,18.20
2009,08,12,16,18,18.20
2009,08,12,16,19,18.30
2009,08,12,16,20,18.30
2009,08,12,16,21,18.30
2009,08,12,16,22,18.40
2009,08,12,16,23,18.40
2009,08,12,16,24,18.40
2009,08,12,16,25,18.40
2009,08,12,16,26,18.40
2009,08,12,16,27,18.40
2009,08,12,16,28,18.30
2009,08,12,16,29,18.30
2009,08,12,16,30,18.10
2009,08,12,16,31,18.00
2009,08,12,16,32,17.90
2009,08,12,16,33,17.70
2009,08,12,16,34,17.40
2009,08,12,16,35,17.30
2009,08,12,16,36,17.00
2009,08,12,16,37,16.80
2009,08,12,16,38,16.70
2009,08,12,16,39,16.70
2009,08,12,16,40,16.70
2009,08,12,16,41,16.80
2009,08,12,16,42,16.90
2009,08,12,16,43,17.00
2009,08,12,16,44,17.10
2009,08,12,16,45,17.20
2009,08,12,16,46,17.20
2009,08,12,16,47,17.10
2009,08,12,16,48,16.90
2009,08,12,16,49,16.80
2009,08,12,16,50,16.60
2009,08,12,16,51,16.20
2009,08,12,16,52,16.00
2009,08,12,16,53,15.80
2009,08,12,16,54,15.80
2009,08,12,16,55,15.70
2009,08,12,16,56,15.50
2009,08,12,16,57,15.40
2009,08,12,16,58,15.40
2009,08,12,16,59,15.30
2009,08,12,17,00,15.30
2009,08,12,17,01,15.30
2009,08,12,17,02,15.40
2009,08,12,17,03,15.40
2009,08,12,17,04,15.30
2009,08,12,17,05,15.30
2009,08,12,17,06,15.10
2009,08,12,17,07,15.10
2009,08,12,17,08,15.20
2009,08,12,17,09,15.30
2009,08,12,17,10,15.30
2009,08,12,17,11,15.20
2009,08,12,17,12,15.10
2009,08,12,17,13,15.10
2009,08,12,17,14,14.90
2009,08,12,17,15,14.80
2009,08,12,17,16,14.90
2009,08,12,17,17,14.90
2009,08,12,17,18,14.90
2009,08,12,17,19,14.90